When you browse on this site, cookies collect data to enhance your experience and personalize the content and advertising you see.
Visit our Privacy Policy to learn more. By continuing to use the site, you agree to this use of cookies and data.
  • In Hungary
  • List of Countries
  • For 7 days
  • Water Temperature
  • Weather Map
  • News
  • Weather Widgets
  • user-avatar
    Login

    Hourly Weather Kolda

    Today, 20 November, Wednesday

    Time Temperature Precipitation Wind Pressure Humidity
    00:00 +26°C° 0 mm 1 mps 755 mmHg 30%
    01:00 +24°C° 0 mm 0 mps 755 mmHg 31%
    02:00 +23°C° 0 mm 0 mps 755 mmHg 32%
    03:00 +23°C° 0 mm 0 mps 755 mmHg 32%
    04:00 +25°C° 0 mm 1 mps 755 mmHg 32%
    05:00 +25°C° 0 mm 1 mps 755 mmHg 32%
    06:00 +26°C° 0 mm 1 mps 756 mmHg 31%
    07:00 +28°C° 0 mm 1 mps 756 mmHg 29%
    08:00 +29°C° 0 mm 2 mps 757 mmHg 27%
    09:00 +31°C° 0 mm 2 mps 756 mmHg 24%
    10:00 +34°C° 0 mm 3 mps 756 mmHg 21%
    11:00 +36°C° 0 mm 3 mps 756 mmHg 18%
    12:00 +36°C° 0 mm 3 mps 755 mmHg 18%
    13:00 +36°C° 0 mm 3 mps 755 mmHg 17%
    14:00 +37°C° 0 mm 3 mps 754 mmHg 17%
    15:00 +36°C° 0 mm 2 mps 754 mmHg 19%
    16:00 +35°C° 0 mm 2 mps 754 mmHg 21%
    17:00 +33°C° 0 mm 1 mps 754 mmHg 22%
    18:00 +31°C° 0 mm 1 mps 754 mmHg 23%
    19:00 +30°C° 0 mm 1 mps 755 mmHg 24%
    20:00 +29°C° 0 mm 1 mps 756 mmHg 24%
    21:00 +28°C° 0 mm 1 mps 756 mmHg 25%
    22:00 +28°C° 0 mm 1 mps 756 mmHg 26%
    23:00 +27°C° 0 mm 1 mps 756 mmHg 27%

    Tomorrow, 21 November, Thursday

    Time Temperature Precipitation Wind Pressure Humidity
    00:00 +26°C° 0 mm 1 mps 756 mmHg 28%
    01:00 +25°C° 0 mm 1 mps 755 mmHg 30%
    02:00 +23°C° 0 mm 0 mps 755 mmHg 31%
    03:00 +22°C° 0 mm 0 mps 755 mmHg 32%
    04:00 +22°C° 0 mm 0 mps 755 mmHg 33%
    05:00 +21°C° 0 mm 0 mps 755 mmHg 34%
    06:00 +25°C° 0 mm 1 mps 756 mmHg 32%
    07:00 +27°C° 0 mm 1 mps 756 mmHg 29%
    08:00 +30°C° 0 mm 1 mps 757 mmHg 27%
    09:00 +32°C° 0 mm 2 mps 756 mmHg 24%
    10:00 +36°C° 0 mm 2 mps 756 mmHg 20%
    11:00 +39°C° 0 mm 3 mps 756 mmHg 17%
    12:00 +40°C° 0 mm 2 mps 755 mmHg 16%
    13:00 +41°C° 0 mm 2 mps 754 mmHg 15%
    14:00 +42°C° 0 mm 2 mps 753 mmHg 14%
    15:00 +40°C° 0 mm 1 mps 753 mmHg 17%
    16:00 +37°C° 0 mm 1 mps 753 mmHg 19%
    17:00 +34°C° 0 mm 0 mps 753 mmHg 21%
    18:00 +34°C° 0 mm 1 mps 754 mmHg 23%
    19:00 +32°C° 0 mm 1 mps 754 mmHg 25%
    20:00 +30°C° 0 mm 1 mps 755 mmHg 27%
    21:00 +29°C° 0 mm 1 mps 755 mmHg 31%
    22:00 +27°C° 0 mm 1 mps 755 mmHg 36%
    23:00 +26°C° 0 mm 1 mps 755 mmHg 40%

    Day after tomorrow, 22 November, Friday

    Time Temperature Precipitation Wind Pressure Humidity
    00:00 +25°C° 0 mm 1 mps 755 mmHg 40%
    01:00 +25°C° 0 mm 1 mps 755 mmHg 41%
    02:00 +24°C° 0 mm 1 mps 755 mmHg 41%
    03:00 +24°C° 0 mm 1 mps 755 mmHg 40%
    04:00 +24°C° 0 mm 1 mps 755 mmHg 38%
    05:00 +24°C° 0 mm 1 mps 756 mmHg 36%
    06:00 +26°C° 0 mm 1 mps 756 mmHg 34%
    07:00 +27°C° 0 mm 2 mps 756 mmHg 31%
    08:00 +29°C° 0 mm 2 mps 757 mmHg 28%
    09:00 +32°C° 0 mm 2 mps 756 mmHg 24%
    10:00 +36°C° 0 mm 3 mps 756 mmHg 20%
    11:00 +39°C° 0 mm 3 mps 756 mmHg 17%
    12:00 +40°C° 0 mm 3 mps 755 mmHg 16%
    13:00 +42°C° 0 mm 3 mps 754 mmHg 15%
    14:00 +42°C° 0 mm 2 mps 753 mmHg 14%
    15:00 +40°C° 0 mm 2 mps 753 mmHg 16%
    16:00 +37°C° 0 mm 1 mps 753 mmHg 19%
    17:00 +36°C° 0 mm 1 mps 753 mmHg 21%
    18:00 +34°C° 0 mm 1 mps 753 mmHg 24%
    19:00 +31°C° 0 mm 1 mps 754 mmHg 27%
    20:00 +29°C° 0 mm 1 mps 754 mmHg 30%
    21:00 +28°C° 0 mm 1 mps 755 mmHg 35%
    22:00 +27°C° 0 mm 1 mps 755 mmHg 39%
    23:00 +26°C° 0 mm 1 mps 755 mmHg 44%

    23 November, Saturday

    Time Temperature Precipitation Wind Pressure Humidity
    00:00 +26°C° 0 mm 1 mps 755 mmHg 44%
    01:00 +25°C° 0 mm 1 mps 755 mmHg 44%
    02:00 +24°C° 0 mm 1 mps 755 mmHg 45%
    03:00 +24°C° 0 mm 1 mps 755 mmHg 44%
    04:00 +23°C° 0 mm 1 mps 755 mmHg 43%
    05:00 +23°C° 0 mm 1 mps 755 mmHg 42%
    06:00 +25°C° 0 mm 1 mps 755 mmHg 38%
    07:00 +27°C° 0 mm 1 mps 756 mmHg 33%
    08:00 +29°C° 0 mm 1 mps 756 mmHg 28%
    09:00 +32°C° 0 mm 2 mps 756 mmHg 24%
    10:00 +36°C° 0 mm 3 mps 756 mmHg 20%
    11:00 +39°C° 0 mm 3 mps 755 mmHg 15%
    12:00 +40°C° 0 mm 3 mps 754 mmHg 14%
    13:00 +42°C° 0 mm 3 mps 754 mmHg 13%
    14:00 +42°C° 0 mm 2 mps 753 mmHg 12%
    15:00 +41°C° 0 mm 2 mps 753 mmHg 15%
    16:00 +39°C° 0 mm 1 mps 753 mmHg 17%
    17:00 +36°C° 0 mm 1 mps 753 mmHg 19%
    18:00 +34°C° 0 mm 1 mps 753 mmHg 23%
    19:00 +32°C° 0 mm 1 mps 754 mmHg 26%
    20:00 +29°C° 0 mm 1 mps 754 mmHg 30%
    21:00 +28°C° 0 mm 1 mps 754 mmHg 39%
    22:00 +27°C° 0 mm 1 mps 755 mmHg 48%
    23:00 +25°C° 0 mm 2 mps 755 mmHg 57%

    24 November, Sunday

    Time Temperature Precipitation Wind Pressure Humidity
    00:00 +25°C° 0 mm 1 mps 755 mmHg 59%
    01:00 +24°C° 0 mm 1 mps 755 mmHg 61%
    02:00 +23°C° 0 mm 1 mps 754 mmHg 63%
    03:00 +21°C° 0 mm 0 mps 755 mmHg 65%
    04:00 +20°C° 0 mm 0 mps 755 mmHg 66%
    05:00 +20°C° 0 mm 0 mps 755 mmHg 67%
    06:00 +22°C° 0 mm 0 mps 755 mmHg 58%
    07:00 +26°C° 0 mm 1 mps 756 mmHg 49%
    08:00 +29°C° 0 mm 1 mps 756 mmHg 39%
    09:00 +32°C° 0 mm 2 mps 756 mmHg 32%
    10:00 +36°C° 0 mm 2 mps 755 mmHg 24%
    11:00 +39°C° 0 mm 3 mps 755 mmHg 16%
    12:00 +40°C° 0 mm 3 mps 754 mmHg 15%
    13:00 +42°C° 0 mm 3 mps 753 mmHg 14%
    14:00 +42°C° 0 mm 2 mps 753 mmHg 13%
    15:00 +41°C° 0 mm 2 mps 753 mmHg 16%
    16:00 +39°C° 0 mm 1 mps 753 mmHg 18%
    17:00 +36°C° 0 mm 1 mps 753 mmHg 21%
    18:00 +34°C° 0 mm 1 mps 753 mmHg 28%
    19:00 +31°C° 0 mm 2 mps 754 mmHg 36%
    20:00 +29°C° 0 mm 2 mps 755 mmHg 43%
    21:00 +28°C° 0 mm 2 mps 755 mmHg 51%
    22:00 +26°C° 0 mm 2 mps 755 mmHg 59%
    23:00 +25°C° 0 mm 2 mps 755 mmHg 66%

    25 November, Monday

    Time Temperature Precipitation Wind Pressure Humidity
    00:00 +25°C° 0 mm 2 mps 755 mmHg 66%
    01:00 +24°C° 0 mm 1 mps 755 mmHg 65%
    02:00 +23°C° 0 mm 1 mps 755 mmHg 64%
    03:00 +23°C° 0 mm 1 mps 755 mmHg 66%
    04:00 +22°C° 0 mm 1 mps 755 mmHg 67%
    05:00 +20°C° 0 mm 0 mps 755 mmHg 68%
    06:00 +24°C° 0 mm 1 mps 755 mmHg 62%
    07:00 +26°C° 0 mm 1 mps 756 mmHg 55%
    08:00 +28°C° 0 mm 1 mps 756 mmHg 48%
    09:00 +32°C° 0 mm 1 mps 756 mmHg 39%
    10:00 +36°C° 0 mm 1 mps 755 mmHg 30%
    11:00 +40°C° 0 mm 1 mps 755 mmHg 21%
    12:00 +41°C° 0 mm 1 mps 754 mmHg 19%
    13:00 +41°C° 0 mm 2 mps 753 mmHg 17%
    14:00 +42°C° 0 mm 2 mps 753 mmHg 15%
    15:00 +40°C° 0 mm 1 mps 753 mmHg 18%
    16:00 +39°C° 0 mm 1 mps 753 mmHg 20%
    17:00 +36°C° 0 mm 1 mps 753 mmHg 23%
    18:00 +34°C° 0 mm 1 mps 753 mmHg 27%
    19:00 +32°C° 0 mm 1 mps 754 mmHg 31%
    20:00 +30°C° 0 mm 2 mps 754 mmHg 36%
    21:00 +28°C° 0 mm 2 mps 755 mmHg 43%
    22:00 +27°C° 0 mm 2 mps 755 mmHg 49%
    23:00 +25°C° 0 mm 2 mps 755 mmHg 56%
    Show more